PEGASUS DEB

基本信息
目录编号:
39310
目录名称:
PEGASUS DEB
国际标识:
1994-029AEV
轨道中心:
EARTH
物体状态:
在轨
发射日期:
1994-05-19 UTC
轨道信息
数据来源: 国际轨道数据
星历时间: 2026-09-01T08:39:18+0800
半长轴: 7092.136km
偏心率: 0.0230367
轨道倾角: 81.817°
近地点辐角: 94.434°
升交点赤经: 346.741°
平近点角: 268.322°
近地点: 550.619km
远地点: 877.379km
周期: 99.066分钟
每日圈数: 14.535744
详细信息
发射场:
AFWTR
轨道高度:
LEO
数据来源:
AOE Integration Group
参考系:
TEME
时间系统:
UTC
历元类型:
SGP4
2D轨道图
3D轨道图
轨道高度分析图
轨道倾角分析图
轨道综合分析图
查看轨道综合分析图